Other Surface Observations
Issued by NWS Tucson, AZ

Home | Current Version | Previous Version | Text Only | Print | Product List | Glossary On
Versions: 1 2 3 4 5 6 7 8 9 10 11 12 13 14 15 16 17 18 19 20 21 22 23 24 25 26 27 28 29 30 31 32 33 34 35 36 37 38 39 40 41 42 43 44 45 46 47 48 49 50
000
SXUS55 KTWC 020416
OSOTWC

WEATHER ROUNDUP FOR SOUTHEAST ARIZONA
NATIONAL WEATHER SERVICE TUCSON AZ
915 PM MST WED OCT 01 2014

AZZ504>506-514-020515-
LOCATION       SKY/WX    TMP DP  RH WIND       PRES   REMARKS
TUCSON         CLEAR     77  34  21 W5        29.92R
DAVIS-MONTHAN  CLEAR     75  36  23 NW6       29.91R
CHILDRENS PARK N/A       79  34  20 N4                PIMA CO DEQ
ALVERNON/22ND  N/A      N/A N/A N/A N/A               PIMA CO DEQ
CHERRY/GLENN   N/A      N/A N/A N/A N/A               PIMA CO DEQ
TANGERINE      N/A       79 N/A N/A N8                PIMA CO DEQ
CONTL RANCH    N/A       79  36  21 NW6               PIMA CO DEQ
GRANT/1ST      N/A       79  34  20 NW4               PIMA CO DEQ
CRAYCROFT/22ND N/A      N/A N/A N/A N/A               PIMA CO DEQ
GOLFLINKS/KOLB N/A       80  35  20 NW5               PIMA CO DEQ
AJO/12TH       N/A       80  34  19 W4                PIMA CO DEQ
SAGUARO EAST   N/A      N/A N/A N/A N/A               PIMA CO DEQ
FAIRGROUNDS    N/A       74 N/A N/A W5                PIMA CO DEQ
SAGUARO        N/A       79  32  18 N7G22             *SABINO CYN
SAN CARLOS     N/A       72  37  28 N2                *SAN CARLOS
GREEN VALLEY   N/A       76  41  28 W4                PIMA CO DEQ
HORSE CAMP CYN N/A       70  33  25 W7G18             *ARAVAIPA CYN
RINCON MTNS    N/A       51  34  51 W2G10             *NR MANNING CAMP
$$

AZZ509>511-020515-
LOCATION       SKY/WX    TMP DP  RH WIND       PRES   REMARKS
SAFFORD        CLEAR     69  34  27 W6        29.91R
STRAY HORSE    N/A       53  29  40 NW7G15            *
TRAIL CABIN    N/A       59  32  36 W3                *N OF GRANVILLE
BLACK HILLS    N/A       72  32  23 N5G12             *N OF FT THOMAS
DRY LAKE       N/A       52  32  46 NW3               *NATANES MTNS
NOON CREEK     N/A       62  37  39 SW5G11            *PINALENO MTNS
COLUMBINE      N/A       41  28  60 CALM              *PINALENO MTNS
GUTHRIE        N/A       62  27  26 NW14G22           *SW OF GUTHRIE
$$

AZZ502-503-513-020515-
LOCATION       SKY/WX    TMP DP  RH WIND       PRES   REMARKS
NOGALES        CLEAR     60  47  61 E9        30.00R
SELLS          N/A       71  47  43 E2                *
SASABE         N/A       62  49  62 S6                *ALTAR VLY
HOPKINS        N/A       55  36  48 W9G15             *SANTA RITA MTNS
CARR CYN       N/A       57  42  57 CALM              *W OF HEREFORD
$$

AZZ507-508-512-020515-
LOCATION       SKY/WX    TMP DP  RH WIND       PRES   REMARKS
SIERRA VISTA   CLEAR     64  43  45 W8        30.04R
DOUGLAS        CLEAR     63  44  50 N8        30.00R
EMPIRE MTNS    N/A       60  38  44 W3G10             *LAS CIENEGAS NCA
MULESHOE RANCH N/A       70  33  25 N7G15             *PRESERVE
HEADQUARTERS   N/A       56  38  50 E3                *CHIRICAHUA MTNS
$$

.............................NOTES.............................
THIS IS AN AUTOMATED COLLECTIVE WITH MINIMAL QUALITY CONTROL.
PIMA CO DEQ SITES HAVE NONSTANDARD WIND SENSOR HEIGHTS.
PIMA CO DEQ SITES DO NOT REPORT WIND GUSTS.
* INDICATES WIND SENSORS LOCATED AT 20 FEET INSTEAD OF 33 FEET.
..............................KEY..............................
SKY/WX - SKY CONDITION/WEATHER
TMP    - TEMPERATURE IN FAHRENHEIT
DP     - DEWPOINT IN FAHRENHEIT
RH     - RELATIVE HUMIDITY IN PERCENT
WIND   - DIRECTION AND SPEED IN MILES PER HOUR (MPH)
VRB    - VARIABLE WIND DIRECTION
PRES   - MEAN SEA LEVEL PRESSURE IN INCHES OF MERCURY
         F - FALLING PRESSURE   R - RISING PRESSURE
         S - STEADY PRESSURE
VSB    - VISIBILITY IN MILES
HX     - HEAT INDEX IN FAHRENHEIT
WCI    - WIND CHILL INDEX IN FAHRENHEIT
N/A    - NOT AVAILABLE
AFB    - AIR FORCE BASE
         DAVIS-MONTHAN IS DAVIS-MONTHAN AIR FORCE BASE
CYN    - CANYON
MTNS   - MOUNTAINS
NCA    - NATIONAL CONSERVATION AREA
NR     - NEAR
VLY    - VALLEY
CONTL  - CONTINENTAL
PIMA CO DEQ - PIMA COUNTY DEPT OF ENVIRONMENTAL QUALITY



USA.gov is the U.S. government's official web portal to all federal, state and local government web resources and services.